| time (UTC) | temp F | wind direction | speed knots | gust knots | rain 1hr in | rain 24hr in | rain mn in | humidity % | barometer mb |
| 20260904171606 | 85 | 326 | 1.7 | 5.2 | 0.00 | 0.39 | 0.39 | 77 | 1013.4 |
| 20260904170105 | 84 | 296 | 2.6 | 5.2 | 0.00 | 0.39 | 0.39 | 74 | 1013.5 |
| 20260904164602 | 84 | 275 | 2.6 | 6.1 | 0.00 | 0.39 | 0.39 | 76 | 1013.6 |
| 20260904163107 | 84 | 286 | 2.6 | 7.0 | 0.00 | 0.39 | 0.39 | 78 | 1013.7 |
| 20260904161603 | 84 | 15 | 2.6 | 6.1 | 0.00 | 0.39 | 0.39 | 76 | 1013.7 |
| 20260904160106 | 84 | 346 | 3.5 | 9.6 | 0.00 | 0.39 | 0.39 | 79 | 1013.9 |
| 20260904154600 | 84 | 297 | 4.3 | 10.4 | 0.00 | 0.39 | 0.39 | 79 | 1014.0 |
| 20260904153105 | 83 | 328 | 3.5 | 7.8 | 0.00 | 0.39 | 0.39 | 78 | 1013.8 |
| 20260904151602 | 83 | 6 | 3.5 | 8.7 | 0.00 | 0.39 | 0.39 | 81 | 1013.8 |
| 20260904150100 | 82 | 1 | 3.5 | 7.8 | 0.00 | 0.39 | 0.39 | 81 | 1013.8 |
| 20260904144600 | 82 | 315 | 2.6 | 7.8 | 0.00 | 0.39 | 0.39 | 83 | 1014.1 |
| 20260904143109 | 81 | 342 | 3.5 | 8.7 | 0.00 | 0.39 | 0.39 | 84 | 1013.9 |
| 20260904141602 | 81 | 290 | 2.6 | 7.8 | 0.00 | 0.39 | 0.39 | 85 | 1013.7 |
| 20260904140104 | 80 | 322 | 2.6 | 7.8 | 0.00 | 0.39 | 0.39 | 88 | 1013.7 |
| 20260904134603 | 80 | 301 | 2.6 | 5.2 | 0.00 | 0.39 | 0.39 | 89 | 1013.7 |
| 20260904133114 | 78 | 312 | 3.5 | 7.0 | 0.00 | 0.39 | 0.39 | 92 | 1013.8 |
| 20260904131604 | 77 | 350 | 2.6 | 7.0 | 0.00 | 0.39 | 0.39 | 93 | 1013.7 |
| 20260904124608 | 75 | 324 | 1.7 | 4.3 | 0.00 | 0.39 | 0.39 | 98 | 1013.7 |
| 20260904123116 | 74 | 11 | 1.7 | 5.2 | 0.00 | 0.39 | 0.39 | 98 | 1013.7 |
| 20260904121603 | 74 | 329 | 1.7 | 4.3 | 0.00 | 0.39 | 0.39 | 98 | 1013.9 |
| 20260904120110 | 73 | 351 | 0.9 | 5.2 | 0.00 | 0.39 | 0.39 | 98 | 1013.8 |
| 20260904114605 | 72 | 318 | 0.9 | 4.3 | 0.00 | 0.39 | 0.39 | 98 | 1013.7 |
| 20260904113103 | 72 | 6 | 2.6 | 5.2 | 0.00 | 0.39 | 0.39 | 99 | 1013.8 |
| 20260904111606 | 72 | 354 | 0.9 | 3.5 | 0.01 | 0.39 | 0.39 | 99 | 1013.8 |
| 20260904110110 | 72 | 315 | 0.9 | 1.7 | 0.01 | 0.39 | 0.39 | 99 | 1013.4 |
| 20260904104604 | 72 | 0 | 0.0 | 2.6 | 0.01 | 0.39 | 0.39 | 99 | 1013.1 |
| 20260904103101 | 72 | 0 | 0.0 | 2.6 | 0.01 | 0.39 | 0.39 | 99 | 1013.0 |
| 20260904101615 | 72 | 0 | 0.0 | 0.0 | 0.00 | 0.38 | 0.38 | 99 | 1012.9 |
| 20260904094604 | 73 | 145 | 0.9 | 2.6 | 0.00 | 0.38 | 0.38 | 100 | 1012.8 |
| 20260904093118 | 73 | 0 | 0.0 | 0.0 | 0.00 | 0.38 | 0.38 | 100 | 1012.4 |
| 20260904091601 | 73 | 0 | 0.0 | 0.0 | 0.01 | 0.38 | 0.38 | 99 | 1012.8 |
| 20260904090059 | 73 | 0 | 0.0 | 0.0 | 0.02 | 0.38 | 0.38 | 99 | 1012.7 |
| 20260904084603 | 73 | 0 | 0.0 | 0.0 | 0.03 | 0.38 | 0.38 | 99 | 1012.7 |
| 20260904083105 | 74 | 0 | 0.0 | 0.0 | 0.05 | 0.38 | 0.38 | 99 | 1012.9 |
| 20260904081601 | 74 | 0 | 0.0 | 1.7 | 0.06 | 0.37 | 0.37 | 100 | 1013.2 |
| 20260904074603 | 74 | 0 | 0.0 | 0.9 | 0.11 | 0.35 | 0.35 | 99 | 1013.9 |
| 20260904073101 | 74 | 0 | 0.0 | 0.9 | 0.21 | 0.33 | 0.33 | 99 | 1013.9 |
| 20260904071601 | 74 | 0 | 0.0 | 2.6 | 0.28 | 0.31 | 0.31 | 99 | 1013.8 |
| 20260904070107 | 74 | 122 | 0.0 | 5.2 | 0.28 | 0.28 | 0.28 | 99 | 1015.2 |
| 20260904064602 | 74 | 313 | 3.5 | 11.3 | 0.24 | 0.24 | 0.24 | 98 | 1016.2 |
| 20260904063101 | 74 | 330 | 4.3 | 10.4 | 0.12 | 0.12 | 0.12 | 98 | 1015.8 |
| 20260904061600 | 75 | 333 | 7.0 | 15.6 | 0.03 | 0.03 | 0.03 | 97 | 1015.3 |
| 20260904060057 | 78 | 295 | 4.3 | 12.2 | 0.00 | 0.00 | 0.00 | 96 | 1014.4 |
| 20260904054604 | 77 | 359 | 0.0 | 1.7 | 0.00 | 0.00 | 0.00 | 100 | 1014.1 |
| 20260904053102 | 77 | 0 | 0.0 | 0.0 | 0.00 | 0.00 | 0.00 | 100 | 1012.8 |
| 20260904051604 | 77 | 0 | 0.0 | 0.0 | 0.00 | 0.00 | 0.00 | 100 | 1013.4 |
| 20260904050104 | 77 | 0 | 0.0 | 0.0 | 0.00 | 0.00 | 0.00 | 100 | 1013.2 |
| 20260904044610 | 77 | 0 | 0.0 | 0.0 | 0.00 | 0.00 | 0.00 | 100 | 1013.4 |
| 20260904043059 | 77 | 0 | 0.0 | 0.0 | 0.00 | 0.00 | 0.00 | 100 | 1013.4 |
| 20260904041604 | 77 | 0 | 0.0 | 0.0 | 0.00 | 0.00 | 0.00 | 100 | 1013.3 |
| 20260904040104 | 78 | 0 | 0.0 | 0.0 | 0.00 | 0.00 | 0.00 | 100 | 1013.7 |
| 20260904034601 | 78 | 0 | 0.0 | 0.0 | 0.00 | 0.00 | 0.00 | 100 | 1014.0 |
| 20260904033059 | 78 | 0 | 0.0 | 0.0 | 0.00 | 0.00 | 0.00 | 99 | 1014.1 |
| 20260904031553 | 77 | 0 | 0.0 | 0.0 | 0.00 | 0.00 | 0.00 | 99 | 1014.2 |
| 20260904030103 | 78 | 0 | 0.0 | 0.0 | 0.00 | 0.00 | 0.00 | 99 | 1013.8 |
| 20260904024601 | 78 | 0 | 0.0 | 0.0 | 0.00 | 0.00 | 0.00 | 99 | 1013.9 |
| 20260904023103 | 78 | 0 | 0.0 | 0.0 | 0.00 | 0.00 | 0.00 | 99 | 1013.9 |
| 20260904021602 | 78 | 0 | 0.0 | 0.0 | 0.00 | 0.00 | 0.00 | 99 | 1013.9 |
| 20260904020101 | 78 | 0 | 0.0 | 0.0 | 0.00 | 0.00 | 0.00 | 99 | 1014.3 |
| 20260904014600 | 78 | 0 | 0.0 | 0.0 | 0.00 | 0.00 | 0.00 | 99 | 1014.5 |
| 20260904013102 | 78 | 0 | 0.0 | 0.0 | 0.00 | 0.00 | 0.00 | 99 | 1014.8 |
| 20260904011613 | 78 | 0 | 0.0 | 0.0 | 0.00 | 0.00 | 0.00 | 99 | 1015.1 |
| 20260904010108 | 78 | 0 | 0.0 | 0.0 | 0.00 | 0.00 | 0.00 | 98 | 1015.1 |
| 20260904004603 | 78 | 0 | 0.0 | 0.0 | 0.00 | 0.00 | 0.00 | 98 | 1014.9 |
| 20260904003102 | 79 | 0 | 0.0 | 0.0 | 0.00 | 0.00 | 0.00 | 97 | 1014.8 |
| 20260904001558 | 79 | 0 | 0.0 | 0.0 | 0.00 | 0.00 | 0.00 | 96 | 1014.6 |
| 20260903234604 | 80 | 0 | 0.0 | 0.0 | 0.00 | 0.00 | 0.00 | 95 | 1014.1 |
| 20260903233102 | 81 | 0 | 0.0 | 0.0 | 0.00 | 0.00 | 0.00 | 94 | 1014.0 |
| 20260903231601 | 82 | 0 | 0.0 | 0.0 | 0.00 | 0.00 | 0.00 | 93 | 1014.1 |
| 20260903230104 | 82 | 0 | 0.0 | 0.0 | 0.00 | 0.00 | 0.00 | 92 | 1013.9 |
| 20260903224602 | 83 | 0 | 0.0 | 0.0 | 0.00 | 0.00 | 0.00 | 90 | 1013.9 |
| 20260903223058 | 84 | 0 | 0.0 | 0.9 | 0.00 | 0.00 | 0.00 | 88 | 1013.9 |
| 20260903221604 | 85 | 0 | 0.0 | 0.9 | 0.00 | 0.00 | 0.00 | 86 | 1014.1 |
| 20260903220123 | 85 | 0 | 0.9 | 4.3 | 0.00 | 0.00 | 0.00 | 85 | 1014.1 |
| 20260903214600 | 86 | 78 | 0.0 | 4.3 | 0.00 | 0.00 | 0.00 | 84 | 1014.2 |
| 20260903213101 | 87 | 0 | 0.0 | 3.5 | 0.00 | 0.00 | 0.00 | 82 | 1014.3 |
| 20260903211558 | 88 | 321 | 0.9 | 4.3 | 0.00 | 0.00 | 0.00 | 81 | 1014.4 |
| 20260903210109 | 88 | 8 | 0.0 | 4.3 | 0.00 | 0.00 | 0.00 | 81 | 1014.4 |
| 20260903204600 | 88 | 18 | 1.7 | 4.3 | 0.00 | 0.00 | 0.00 | 81 | 1014.6 |
| 20260903203130 | 87 | 47 | 0.9 | 6.1 | 0.00 | 0.00 | 0.00 | 80 | 1014.6 |
| 20260903201606 | 88 | 62 | 0.9 | 5.2 | 0.00 | 0.00 | 0.00 | 80 | 1014.9 |
| 20260903200104 | 88 | 0 | 0.0 | 3.5 | 0.00 | 0.00 | 0.00 | 81 | 1014.7 |
| 20260903194602 | 86 | 304 | 0.9 | 6.1 | 0.00 | 0.00 | 0.00 | 81 | 1015.0 |
| 20260903193101 | 86 | 294 | 1.7 | 5.2 | 0.00 | 0.00 | 0.00 | 83 | 1015.1 |
| 20260903191604 | 85 | 0 | 0.9 | 4.3 | 0.00 | 0.00 | 0.00 | 86 | 1015.2 |
| 20260903184601 | 85 | 0 | 0.0 | 3.5 | 0.00 | 0.00 | 0.00 | 87 | 1015.6 |
| 20260903183102 | 85 | 343 | 0.9 | 2.6 | 0.00 | 0.00 | 0.00 | 86 | 1015.7 |
| 20260903181600 | 85 | 0 | 0.9 | 3.5 | 0.00 | 0.00 | 0.00 | 87 | 1016.0 |
| 20260903180107 | 84 | 123 | 0.0 | 0.9 | 0.00 | 0.00 | 0.00 | 89 | 1015.8 |
| 20260903174609 | 83 | 0 | 0.0 | 0.9 | 0.00 | 0.00 | 0.00 | 90 | 1016.1 |
| 20260903173101 | 84 | 0 | 0.0 | 2.6 | 0.00 | 0.00 | 0.00 | 87 | 1015.9 |